Hourly Weather Roundup
Issued by NWS

Home | Current Version | Previous Version | Text Only | Print | Product List | Glossary On
Versions: 1 2 3 4 5 6 7 8 9 10 11 12 13 14 15 16 17 18 19 20 21 22 23 24 25 26 27 28 29 30 31 32 33 34 35 36 37 38 39 40 41 42 43 44 45 46 47 48 49 50
359
NZUS43 KILX 110910
HWRCRS

CRS HOURLY WEATHER ROUNDUP
NATIONAL WEATHER SERVICE, LINCOLN IL
300 AM CST THU FEB 11 2016


CITY           SKY/WX    TMP DP  RH WIND       PRES   REMARKS
CHAMPAIGN      CLOUDY    15   6  67 N5        30.19R WCI   8
LAWRENCEVILLE  CLOUDY    21  15  78 N7        30.20S WCI  12
PEORIA         CLOUDY    12   3  67 CALM      30.23R
SPRINGFIELD    CLOUDY    20   8  60 N8        30.22R WCI  10
$$


CITY           SKY/WX    TMP DP  RH WIND       PRES   REMARKS
BLOOMINGTON    CLOUDY    12   6  77 NE8       30.20R WCI   0
DECATUR        CLOUDY    17   7  64 N7        30.20R WCI   8
EFFINGHAM      FLURRIES  21  18  86 N5        30.21S WCI  15
FLORA          FLURRIES  23  19  85 CALM      30.20R
GALESBURG      PTCLDY     8   4  83 CALM      30.23R
JACKSONVILLE   CLOUDY    22  16  77 N6        30.21S WCI  14
LACON          CLOUDY    12   4  71 N3        30.23R
LINCOLN        CLOUDY    17   9  71 N5        30.22S WCI  10
LITCHFIELD     CLOUDY    19  16  85 N8        30.19R WCI   9

CITY           SKY/WX    TMP DP  RH WIND       PRES   REMARKS
MACOMB         CLOUDY    15   8  73 N7        30.25R WCI   5
MATTOON        CLOUDY    18   8  65 N6        30.19R WCI  10
MOLINE         PTCLDY    11   2  67 N5        30.25R WCI   3
OLNEY          CLOUDY    21  19  93 NE5       30.20R WCI  15
PARIS          CLOUDY    14   9  80 CALM      30.21R
PONTIAC        CLOUDY    15   6  70 N6        30.22R WCI   6
QUINCY         CLOUDY    19  13  77 NE13      30.20R WCI   6
RANTOUL        CLOUDY    15   8  73 N7        30.19R WCI   6
ROBINSON       CLOUDY    19  14  79 N3        30.21S
TAYLORVILLE    CLOUDY    19  12  73 N10       30.21R WCI   8
TERRE HAUTE    MOCLDY    13   7  77 NW3       30.20R
$$


CITY           SKY/WX    TMP DP  RH WIND       PRES   REMARKS
BURLINGTON     PTCLDY    13   4  67 N7        30.23R WCI   3
CHICAGO        PTCLDY    10   0  63 NW12      30.19R WCI  -5
DES MOINES     CLOUDY    12   1  61 NE12      30.26R WCI  -2
EVANSVILLE     CLOUDY    24  17  74 NE5       30.20R WCI  18
INDIANAPOLIS   CLOUDY    14   6  70 NW6       30.14S WCI   5
KANSAS CITY    PTCLDY    23  20  88 NE9       30.14R WCI  13
MILWAUKEE      CLEAR      7  -5  57 NW10      30.20R WCI  -8
ST LOUIS       CLOUDY    24  18  77 CALM      30.19R
$$





USA.gov is the U.S. government's official web portal to all federal, state and local government web resources and services.